Regional Weather Roundup
Issued by NWS Cleveland, OH

Home | Current Version | Previous Version | Text Only | Print | Product List | Glossary Off
Versions: 1 2 3 4 5 6 7 8 9 10 11 12 13 14 15 16 17 18 19 20 21 22 23 24 25 26 27 28 29 30 31 32 33 34 35 36 37 38 39 40 41 42 43 44 45 46 47 48 49 50

000
ASUS41 KCLE 301710
RWRCLE
OHIO REGIONAL WEATHER ROUNDUP
NATIONAL WEATHER SERVICE WILMINGTON, OH
100 PM EDT THU OCT 30 2014

NOTE: "FAIR" INDICATES FEW OR NO CLOUDS BELOW 12,000 FEET WITH NO
SIGNIFICANT WEATHER AND/OR OBSTRUCTIONS TO VISIBILITY.

OHZ001>008-015>018-024>027-034-035-043-044-301800-
   NORTHWEST OHIO

CITY           SKY/WX    TMP DP  RH WIND       PRES   REMARKS
DEFIANCE       CLOUDY    46  37  71 VRB5      30.15F
FINDLAY        MOSUNNY   49  34  56 W3        30.13F
TOLEDO EXPRESS CLOUDY    47  34  60 CALM      30.14F
TOLEDO METCALF MOSUNNY   48  34  58 VRB3      30.15F
LIMA           CLOUDY    48  34  58 N6        30.14F
$$

OHZ009>014-019>023-028>033-038-089-301800-
   NORTHEAST OHIO

CITY           SKY/WX    TMP DP  RH WIND       PRES   REMARKS
CLE-HOPKINS    PTSUNNY   50  37  61 W9        30.13F
CLE-LAKEFRONT    N/A    N/A N/A N/A MISG        N/A
CUY CO. ARPT   PTSUNNY   48  37  66 NW14      30.12F
LORAIN-ELYRIA  MOSUNNY   48  36  63 W8        30.13F
ASHTABULA      CLOUDY    48  37  65 W7        30.10F
AKRON-CANTON   CLOUDY    48  38  68 NW5       30.11F
WOOSTER        PTSUNNY   48  36  63 VRB3      30.12F
MANSFIELD      PTSUNNY   50  35  56 MISG      30.11F
YOUNGSTOWN     CLOUDY    48  37  65 W7        30.09F
$$

OHZ042-051>053-060>062-070>072-077>081-301800-
  SOUTHWEST OHIO

CITY           SKY/WX    TMP DP  RH WIND       PRES   REMARKS
CINC-COVINGTON MOSUNNY   51  33  50 NE5       30.14F
CINC-LUNKEN    SUNNY     52  34  50 SW5       30.15F
HAMILTON       MOSUNNY   53  34  48 VRB3      30.16F
DAYTON         CLOUDY    49  33  54 E5        30.15F
WRIGHT-PAT AFB CLOUDY    48  32  54 S2        30.14F
DAYTON GENERAL PTSUNNY   51  35  54 CALM      30.13F
WILMINGTON     SUNNY     50  32  50 CALM      30.13F
$$

OHZ036-037-039>041-045>050-054>059-063>069-073>076-082>088-301800-
  CENTRAL AND SOUTHEAST OHIO

CITY           SKY/WX    TMP DP  RH WIND       PRES   REMARKS
COLUMBUS       CLOUDY    49  34  56 CALM      30.13F
OSU AIRPORT    CLOUDY    49  33  54 VRB3      30.13F
BOLTON FIELD   CLOUDY    48  34  57 CALM        N/A
RICKENBACK AFB PTSUNNY   49  33  54 W3        30.13F
NEWARK         CLOUDY    50  31  48 SW5       30.12F
MARION         CLOUDY    47  33  58 NW6       30.13F
LANCASTER      CLOUDY    50  33  52 CALM      30.14F
ZANESVILLE     MOSUNNY   48  33  56 SW3       30.12F
NEW PHILLY     MOSUNNY   49  36  61 W5        30.12F
$$



USA.gov is the U.S. government's official web portal to all federal, state and local government web resources and services.